Find Starlink 5675

NORAD ID: 55340 Int'l Des: 2023-013 Owner: SPXS Country: US Constellation: starlink operational
LEOCIRCULAR

实时位置

正在加载3D地球...

关于 Starlink 5675

正在加载描述...

即将过境

Passes for default location (London). Set your location on the main map for personalized predictions.

高度历史

Loading altitude history...

两行轨道根数

1 55340U 23013K 26124.58335648 .00083157 00000-0 30043-2 0 9999
2 55340 43.0008 347.5161 0001551 276.4337 110.8671 15.27505930 5900
Epoch: May 4, 2026 • Age: 5 hours

当前状态

高度 487.4 km
速度 7.63 km/s
星下点 43.13°N, 68.49°W
发射日期 Jan 26, 2023
运行时间 3.2 years
类型 internet

技术详情

分类 Payload
质量 305.00 kg
干质量 290.00 kg
总质量 305.00 kg
长度 0.20 m
直径 2.80 m
跨度 9.00 m
形状 Box + pan
制造商 SPXS
平台类型 Starlink
阶段状态 In Orbit
所有者/国家 SPXS/US

Most Searched